| time (UTC) | temp C | wind direction | speed KPH | gust KPH | rain 1hr cm | rain 24hr cm | rain mn cm | humidity % | barometer mb |
| 20260506202503 | 20 | 238 | 11.3 | 27.4 | 0.00 | 0.00 | 0.00 | 72 | 1006.9 |
| 20260506201504 | 20 | 237 | 11.3 | 27.4 | 0.00 | 0.00 | 0.00 | 72 | 1006.9 |
| 20260506201005 | 20 | 235 | 11.3 | 24.1 | 0.00 | 0.00 | 0.00 | 73 | 1006.8 |
| 20260506200504 | 20 | 232 | 11.3 | 24.1 | 0.00 | 0.00 | 0.00 | 73 | 1006.8 |
| 20260506200005 | 20 | 229 | 11.3 | 29.0 | 0.00 | 0.00 | 0.00 | 73 | 1007.0 |
| 20260506195503 | 20 | 237 | 11.3 | 29.0 | 0.00 | 0.00 | 0.00 | 74 | 1007.2 |
| 20260506195004 | 19 | 235 | 11.3 | 25.7 | 0.00 | 0.00 | 0.00 | 74 | 1007.2 |
| 20260506194503 | 19 | 234 | 11.3 | 27.4 | 0.00 | 0.00 | 0.00 | 74 | 1007.2 |
| 20260506194003 | 19 | 237 | 12.9 | 32.2 | 0.00 | 0.00 | 0.00 | 74 | 1007.3 |
| 20260506193505 | 19 | 227 | 11.3 | 32.2 | 0.00 | 0.00 | 0.00 | 74 | 1007.4 |
| 20260506193003 | 19 | 226 | 9.7 | 27.4 | 0.00 | 0.00 | 0.00 | 74 | 1007.5 |
| 20260506192504 | 19 | 235 | 8.0 | 27.4 | 0.00 | 0.00 | 0.00 | 74 | 1007.5 |
| 20260506191503 | 19 | 238 | 11.3 | 24.1 | 0.00 | 0.00 | 0.00 | 75 | 1007.5 |
| 20260506190504 | 19 | 230 | 9.7 | 24.1 | 0.00 | 0.00 | 0.00 | 75 | 1007.6 |
| 20260506190005 | 19 | 231 | 9.7 | 24.1 | 0.00 | 0.00 | 0.00 | 75 | 1007.6 |
| 20260506185503 | 18 | 224 | 8.0 | 22.5 | 0.00 | 0.00 | 0.00 | 75 | 1007.7 |
| 20260506185004 | 18 | 224 | 8.0 | 20.9 | 0.00 | 0.00 | 0.00 | 76 | 1007.7 |
| 20260506184505 | 18 | 221 | 6.4 | 19.3 | 0.00 | 0.00 | 0.00 | 76 | 1007.7 |
| 20260506183503 | 18 | 219 | 11.3 | 30.6 | 0.00 | 0.00 | 0.00 | 75 | 1007.9 |
| 20260506183005 | 18 | 231 | 12.9 | 32.2 | 0.00 | 0.00 | 0.00 | 75 | 1008.0 |
| 20260506182003 | 19 | 225 | 12.9 | 32.2 | 0.00 | 0.00 | 0.00 | 72 | 1007.9 |
| 20260506181004 | 19 | 218 | 11.3 | 33.8 | 0.00 | 0.00 | 0.00 | 72 | 1008.0 |
| 20260506180503 | 19 | 212 | 11.3 | 29.0 | 0.00 | 0.00 | 0.00 | 72 | 1007.8 |
| 20260506175504 | 19 | 214 | 11.3 | 29.0 | 0.00 | 0.00 | 0.00 | 72 | 1008.0 |
| 20260506175004 | 19 | 206 | 9.7 | 24.1 | 0.00 | 0.00 | 0.00 | 72 | 1008.2 |
| 20260506174504 | 19 | 209 | 9.7 | 25.7 | 0.00 | 0.00 | 0.00 | 72 | 1008.2 |
| 20260506174003 | 19 | 218 | 11.3 | 25.7 | 0.00 | 0.00 | 0.00 | 72 | 1008.2 |
| 20260506173504 | 19 | 220 | 11.3 | 29.0 | 0.00 | 0.00 | 0.00 | 72 | 1008.2 |
| 20260506173004 | 19 | 216 | 11.3 | 30.6 | 0.00 | 0.00 | 0.00 | 72 | 1008.2 |
| 20260506172004 | 19 | 221 | 9.7 | 25.7 | 0.00 | 0.00 | 0.00 | 73 | 1008.3 |
| 20260506171503 | 19 | 217 | 11.3 | 25.7 | 0.00 | 0.00 | 0.00 | 73 | 1008.4 |
| 20260506171004 | 19 | 218 | 14.5 | 32.2 | 0.00 | 0.00 | 0.00 | 73 | 1008.3 |
| 20260506170503 | 20 | 216 | 11.3 | 32.2 | 0.00 | 0.00 | 0.00 | 72 | 1008.4 |
| 20260506170003 | 20 | 208 | 9.7 | 24.1 | 0.00 | 0.00 | 0.00 | 72 | 1008.4 |
| 20260506165504 | 20 | 208 | 12.9 | 38.6 | 0.00 | 0.00 | 0.00 | 72 | 1008.4 |
| 20260506165005 | 20 | 205 | 14.5 | 38.6 | 0.00 | 0.00 | 0.00 | 71 | 1008.4 |
| 20260506164003 | 20 | 211 | 8.0 | 24.1 | 0.00 | 0.00 | 0.00 | 71 | 1008.6 |
| 20260506163503 | 20 | 214 | 8.0 | 22.5 | 0.00 | 0.00 | 0.00 | 70 | 1008.7 |
| 20260506163004 | 20 | 213 | 9.7 | 22.5 | 0.00 | 0.00 | 0.00 | 70 | 1008.8 |
| 20260506162503 | 20 | 206 | 8.0 | 19.3 | 0.00 | 0.00 | 0.00 | 71 | 1009.0 |
| 20260506162003 | 20 | 205 | 6.4 | 22.5 | 0.00 | 0.00 | 0.00 | 71 | 1009.1 |
| 20260506161503 | 20 | 206 | 6.4 | 22.5 | 0.00 | 0.00 | 0.00 | 70 | 1009.4 |
| 20260506160504 | 20 | 208 | 8.0 | 19.3 | 0.00 | 0.00 | 0.00 | 69 | 1009.5 |
| 20260506160003 | 20 | 217 | 4.8 | 17.7 | 0.00 | 0.00 | 0.00 | 69 | 1009.6 |
| 20260506155505 | 20 | 228 | 6.4 | 19.3 | 0.00 | 0.00 | 0.00 | 69 | 1009.7 |
| 20260506155003 | 20 | 225 | 9.7 | 22.5 | 0.00 | 0.00 | 0.00 | 68 | 1009.7 |
| 20260506154004 | 20 | 225 | 11.3 | 25.7 | 0.00 | 0.00 | 0.00 | 65 | 1009.5 |
| 20260506153504 | 20 | 215 | 11.3 | 27.4 | 0.00 | 0.00 | 0.00 | 66 | 1009.6 |
| 20260506153004 | 20 | 211 | 12.9 | 37.0 | 0.00 | 0.00 | 0.00 | 63 | 1009.5 |
| 20260506152504 | 20 | 213 | 11.3 | 37.0 | 0.00 | 0.00 | 0.00 | 63 | 1009.7 |
| 20260506152004 | 21 | 210 | 9.7 | 22.5 | 0.00 | 0.00 | 0.00 | 63 | 1009.6 |
| 20260506151504 | 21 | 208 | 9.7 | 22.5 | 0.00 | 0.00 | 0.00 | 61 | 1009.5 |
| 20260506151004 | 21 | 219 | 9.7 | 20.9 | 0.00 | 0.00 | 0.00 | 62 | 1009.4 |
| 20260506150504 | 21 | 223 | 12.9 | 30.6 | 0.00 | 0.00 | 0.00 | 62 | 1009.6 |
| 20260506150004 | 21 | 217 | 11.3 | 30.6 | 0.00 | 0.00 | 0.00 | 62 | 1009.6 |
| 20260506145503 | 21 | 211 | 9.7 | 24.1 | 0.00 | 0.00 | 0.00 | 62 | 1009.6 |
| 20260506145003 | 20 | 214 | 9.7 | 24.1 | 0.00 | 0.00 | 0.00 | 62 | 1009.7 |
| 20260506144504 | 20 | 214 | 11.3 | 24.1 | 0.00 | 0.00 | 0.00 | 62 | 1009.8 |
| 20260506144005 | 20 | 216 | 9.7 | 24.1 | 0.00 | 0.00 | 0.00 | 62 | 1009.8 |
| 20260506143503 | 20 | 226 | 9.7 | 32.2 | 0.00 | 0.00 | 0.00 | 62 | 1009.9 |
| 20260506142504 | 21 | 228 | 12.9 | 29.0 | 0.00 | 0.00 | 0.00 | 61 | 1009.7 |
| 20260506142004 | 21 | 216 | 12.9 | 30.6 | 0.00 | 0.00 | 0.00 | 62 | 1009.7 |
| 20260506141004 | 21 | 224 | 11.3 | 25.7 | 0.00 | 0.00 | 0.00 | 61 | 1009.6 |
| 20260506140503 | 21 | 220 | 12.9 | 32.2 | 0.00 | 0.00 | 0.00 | 62 | 1009.7 |
| 20260506140003 | 20 | 211 | 12.9 | 32.2 | 0.00 | 0.00 | 0.00 | 62 | 1009.6 |
| 20260506135505 | 20 | 211 | 11.3 | 25.7 | 0.00 | 0.00 | 0.00 | 62 | 1009.6 |
| 20260506135004 | 20 | 221 | 9.7 | 30.6 | 0.00 | 0.00 | 0.00 | 63 | 1009.5 |
| 20260506134504 | 20 | 222 | 12.9 | 30.6 | 0.00 | 0.00 | 0.00 | 63 | 1009.6 |
| 20260506134004 | 20 | 217 | 12.9 | 33.8 | 0.00 | 0.00 | 0.00 | 63 | 1009.6 |
| 20260506133504 | 20 | 208 | 12.9 | 33.8 | 0.00 | 0.00 | 0.00 | 62 | 1009.5 |
| 20260506133003 | 20 | 213 | 11.3 | 30.6 | 0.00 | 0.00 | 0.00 | 62 | 1009.5 |
| 20260506132503 | 20 | 220 | 11.3 | 29.0 | 0.00 | 0.00 | 0.00 | 62 | 1009.6 |
| 20260506132005 | 20 | 220 | 12.9 | 30.6 | 0.00 | 0.00 | 0.00 | 62 | 1009.7 |
| 20260506131504 | 20 | 221 | 14.5 | 45.1 | 0.00 | 0.00 | 0.00 | 62 | 1009.8 |
| 20260506131004 | 21 | 217 | 14.5 | 45.1 | 0.00 | 0.00 | 0.00 | 62 | 1009.9 |
| 20260506130504 | 21 | 219 | 12.9 | 24.1 | 0.00 | 0.00 | 0.00 | 62 | 1009.9 |
| 20260506125505 | 21 | 207 | 12.9 | 37.0 | 0.00 | 0.00 | 0.00 | 62 | 1009.7 |
| 20260506125003 | 21 | 214 | 12.9 | 32.2 | 0.00 | 0.00 | 0.00 | 64 | 1009.8 |
| 20260506124503 | 20 | 215 | 14.5 | 32.2 | 0.00 | 0.00 | 0.00 | 65 | 1009.8 |
| 20260506124004 | 20 | 208 | 14.5 | 29.0 | 0.00 | 0.00 | 0.00 | 65 | 1009.8 |
| 20260506123503 | 20 | 207 | 14.5 | 30.6 | 0.00 | 0.00 | 0.00 | 64 | 1009.8 |
| 20260506122004 | 20 | 209 | 9.7 | 20.9 | 0.00 | 0.00 | 0.00 | 67 | 1009.8 |
| 20260506121504 | 19 | 209 | 9.7 | 22.5 | 0.00 | 0.00 | 0.00 | 68 | 1009.9 |
| 20260506120504 | 18 | 202 | 9.7 | 22.5 | 0.00 | 0.00 | 0.00 | 69 | 1009.9 |
| 20260506120003 | 18 | 201 | 9.7 | 22.5 | 0.00 | 0.00 | 0.00 | 69 | 1010.0 |
| 20260506115503 | 18 | 201 | 11.3 | 20.9 | 0.00 | 0.00 | 0.00 | 69 | 1010.1 |
| 20260506115004 | 18 | 201 | 9.7 | 20.9 | 0.00 | 0.00 | 0.00 | 69 | 1009.9 |
| 20260506114505 | 18 | 201 | 8.0 | 20.9 | 0.00 | 0.00 | 0.00 | 69 | 1010.0 |
| 20260506114004 | 18 | 203 | 9.7 | 24.1 | 0.00 | 0.00 | 0.00 | 70 | 1010.0 |
| 20260506113504 | 18 | 196 | 12.9 | 27.4 | 0.00 | 0.00 | 0.00 | 70 | 1010.0 |
| 20260506113004 | 18 | 195 | 14.5 | 29.0 | 0.00 | 0.00 | 0.00 | 70 | 1010.1 |
| 20260506112503 | 18 | 200 | 11.3 | 29.0 | 0.00 | 0.00 | 0.00 | 69 | 1010.1 |
| 20260506111503 | 18 | 199 | 11.3 | 25.7 | 0.00 | 0.00 | 0.00 | 70 | 1010.0 |
| 20260506111004 | 18 | 203 | 9.7 | 20.9 | 0.00 | 0.00 | 0.00 | 70 | 1010.1 |
| 20260506110004 | 18 | 204 | 8.0 | 24.1 | 0.00 | 0.00 | 0.00 | 71 | 1010.0 |
| 20260506105503 | 17 | 198 | 9.7 | 24.1 | 0.00 | 0.00 | 0.00 | 72 | 1010.0 |
| 20260506105004 | 18 | 195 | 9.7 | 20.9 | 0.00 | 0.00 | 0.00 | 72 | 1009.9 |
| 20260506104504 | 17 | 203 | 8.0 | 19.3 | 0.00 | 0.00 | 0.00 | 72 | 1009.9 |
| 20260506104004 | 17 | 199 | 8.0 | 19.3 | 0.00 | 0.00 | 0.00 | 72 | 1010.0 |
| 20260506103504 | 17 | 195 | 8.0 | 19.3 | 0.00 | 0.00 | 0.00 | 73 | 1009.9 |
| 20260506103004 | 17 | 201 | 8.0 | 25.7 | 0.00 | 0.00 | 0.00 | 73 | 1009.9 |
| 20260506102503 | 17 | 203 | 8.0 | 25.7 | 0.00 | 0.00 | 0.00 | 73 | 1009.9 |
| 20260506101504 | 17 | 208 | 11.3 | 25.7 | 0.00 | 0.00 | 0.00 | 73 | 1010.0 |
| 20260506101004 | 17 | 205 | 11.3 | 25.7 | 0.00 | 0.00 | 0.00 | 73 | 1010.0 |
| 20260506100005 | 17 | 200 | 9.7 | 22.5 | 0.00 | 0.00 | 0.00 | 73 | 1009.9 |
| 20260506095503 | 17 | 198 | 11.3 | 24.1 | 0.00 | 0.00 | 0.00 | 74 | 1009.8 |
| 20260506094504 | 17 | 200 | 9.7 | 22.5 | 0.00 | 0.00 | 0.00 | 74 | 1009.7 |
| 20260506094004 | 17 | 196 | 9.7 | 22.5 | 0.00 | 0.00 | 0.00 | 74 | 1009.7 |
| 20260506093503 | 17 | 195 | 9.7 | 24.1 | 0.00 | 0.00 | 0.00 | 74 | 1009.7 |
| 20260506093004 | 17 | 195 | 9.7 | 24.1 | 0.00 | 0.00 | 0.00 | 73 | 1009.7 |
| 20260506092504 | 17 | 197 | 8.0 | 22.5 | 0.00 | 0.00 | 0.00 | 74 | 1009.7 |
| 20260506092005 | 18 | 202 | 9.7 | 27.4 | 0.00 | 0.00 | 0.00 | 73 | 1009.7 |
| 20260506091503 | 17 | 202 | 8.0 | 27.4 | 0.00 | 0.00 | 0.00 | 74 | 1009.8 |
| 20260506091005 | 17 | 200 | 8.0 | 16.1 | 0.00 | 0.00 | 0.00 | 74 | 1009.8 |
| 20260506090504 | 18 | 197 | 8.0 | 17.7 | 0.00 | 0.00 | 0.00 | 74 | 1009.9 |
| 20260506085504 | 18 | 191 | 9.7 | 22.5 | 0.00 | 0.00 | 0.00 | 74 | 1010.0 |
| 20260506084504 | 18 | 200 | 9.7 | 19.3 | 0.00 | 0.00 | 0.00 | 74 | 1009.9 |
| 20260506084004 | 17 | 199 | 8.0 | 17.7 | 0.00 | 0.00 | 0.00 | 74 | 1010.0 |
| 20260506083504 | 18 | 190 | 8.0 | 20.9 | 0.00 | 0.00 | 0.00 | 74 | 1010.0 |
| 20260506083005 | 18 | 191 | 8.0 | 20.9 | 0.00 | 0.00 | 0.00 | 74 | 1010.0 |
| 20260506082504 | 18 | 193 | 8.0 | 19.3 | 0.00 | 0.00 | 0.00 | 74 | 1010.0 |
| 20260506081503 | 18 | 193 | 8.0 | 22.5 | 0.00 | 0.00 | 0.00 | 74 | 1010.1 |
| 20260506081005 | 18 | 190 | 8.0 | 22.5 | 0.00 | 0.00 | 0.00 | 74 | 1010.1 |
| 20260506080504 | 17 | 188 | 6.4 | 19.3 | 0.00 | 0.00 | 0.00 | 75 | 1010.1 |
| 20260506073504 | 18 | 181 | 6.4 | 17.7 | 0.00 | 0.00 | 0.00 | 74 | 1009.9 |
| 20260506073004 | 18 | 194 | 8.0 | 20.9 | 0.00 | 0.00 | 0.00 | 73 | 1010.0 |
| 20260506072505 | 18 | 194 | 8.0 | 20.9 | 0.00 | 0.00 | 0.00 | 73 | 1010.0 |
| 20260506072004 | 18 | 185 | 6.4 | 17.7 | 0.00 | 0.00 | 0.00 | 73 | 1009.9 |
| 20260506071504 | 18 | 192 | 6.4 | 17.7 | 0.00 | 0.00 | 0.00 | 73 | 1010.1 |
| 20260506071004 | 18 | 194 | 6.4 | 20.9 | 0.00 | 0.00 | 0.00 | 73 | 1010.1 |
| 20260506070504 | 18 | 194 | 6.4 | 20.9 | 0.00 | 0.00 | 0.00 | 73 | 1010.1 |
| 20260506062003 | 18 | 197 | 8.0 | 20.9 | 0.00 | 0.00 | 0.00 | 72 | 1010.3 |
| 20260506061004 | 18 | 193 | 8.0 | 22.5 | 0.00 | 0.00 | 0.00 | 71 | 1010.2 |
| 20260506060504 | 18 | 195 | 8.0 | 22.5 | 0.00 | 0.00 | 0.00 | 71 | 1010.3 |
| 20260506051005 | 19 | 201 | 8.0 | 20.9 | 0.00 | 0.00 | 0.00 | 69 | 1010.6 |
| 20260506050504 | 20 | 210 | 8.0 | 22.5 | 0.00 | 0.00 | 0.00 | 68 | 1010.6 |
| 20260506045004 | 20 | 209 | 9.7 | 25.7 | 0.00 | 0.00 | 0.00 | 68 | 1010.6 |
| 20260506044503 | 20 | 214 | 9.7 | 25.7 | 0.00 | 0.00 | 0.00 | 68 | 1010.7 |
| 20260506044003 | 20 | 203 | 9.7 | 27.4 | 0.00 | 0.00 | 0.00 | 67 | 1010.7 |
| 20260506043505 | 20 | 199 | 9.7 | 27.4 | 0.00 | 0.00 | 0.00 | 67 | 1010.6 |
| 20260506043004 | 20 | 206 | 9.7 | 27.4 | 0.00 | 0.00 | 0.00 | 67 | 1010.6 |
| 20260506042004 | 20 | 201 | 9.7 | 25.7 | 0.00 | 0.00 | 0.00 | 67 | 1010.6 |
| 20260506041505 | 20 | 204 | 9.7 | 25.7 | 0.00 | 0.00 | 0.00 | 66 | 1010.6 |
| 20260506041004 | 20 | 202 | 9.7 | 25.7 | 0.00 | 0.00 | 0.00 | 66 | 1010.5 |
| 20260506040505 | 20 | 196 | 8.0 | 25.7 | 0.00 | 0.00 | 0.00 | 66 | 1010.5 |
| 20260506035503 | 20 | 200 | 9.7 | 20.9 | 0.00 | 0.00 | 0.00 | 65 | 1010.5 |
| 20260506035004 | 20 | 203 | 11.3 | 25.7 | 0.00 | 0.00 | 0.00 | 65 | 1010.6 |
| 20260506034004 | 20 | 198 | 11.3 | 29.0 | 0.00 | 0.00 | 0.00 | 64 | 1010.4 |
| 20260506033504 | 20 | 204 | 11.3 | 33.8 | 0.00 | 0.00 | 0.00 | 64 | 1010.6 |
| 20260506033005 | 20 | 202 | 11.3 | 33.8 | 0.00 | 0.00 | 0.00 | 64 | 1010.5 |
| 20260506032504 | 20 | 201 | 9.7 | 24.1 | 0.00 | 0.00 | 0.00 | 64 | 1010.5 |
| 20260506032006 | 20 | 202 | 11.3 | 24.1 | 0.00 | 0.00 | 0.00 | 63 | 1010.5 |
| 20260506031504 | 20 | 200 | 11.3 | 25.7 | 0.00 | 0.00 | 0.00 | 63 | 1010.5 |
| 20260506031004 | 20 | 197 | 12.9 | 25.7 | 0.00 | 0.00 | 0.00 | 63 | 1010.6 |
| 20260506030504 | 20 | 201 | 12.9 | 30.6 | 0.00 | 0.00 | 0.00 | 63 | 1010.6 |
| 20260506030005 | 20 | 210 | 12.9 | 30.6 | 0.00 | 0.00 | 0.00 | 62 | 1010.6 |
| 20260506025504 | 20 | 207 | 11.3 | 30.6 | 0.00 | 0.00 | 0.00 | 62 | 1010.6 |
| 20260506025004 | 20 | 200 | 12.9 | 30.6 | 0.00 | 0.00 | 0.00 | 61 | 1010.6 |
| 20260506024504 | 20 | 202 | 11.3 | 24.1 | 0.00 | 0.00 | 0.00 | 61 | 1010.7 |
| 20260506023504 | 21 | 203 | 12.9 | 29.0 | 0.00 | 0.00 | 0.00 | 60 | 1010.7 |
| 20260506022504 | 21 | 202 | 14.5 | 33.8 | 0.00 | 0.00 | 0.00 | 59 | 1010.6 |
| 20260506021504 | 21 | 201 | 11.3 | 25.7 | 0.00 | 0.00 | 0.00 | 58 | 1010.6 |
| 20260506021004 | 21 | 203 | 11.3 | 22.5 | 0.00 | 0.00 | 0.00 | 58 | 1010.6 |
| 20260506020005 | 21 | 198 | 9.7 | 38.6 | 0.00 | 0.00 | 0.00 | 57 | 1010.6 |
| 20260506014505 | 21 | 201 | 11.3 | 25.7 | 0.00 | 0.00 | 0.00 | 56 | 1010.4 |
| 20260506014005 | 21 | 196 | 11.3 | 25.7 | 0.00 | 0.00 | 0.00 | 56 | 1010.3 |
| 20260506013005 | 21 | 197 | 8.0 | 24.1 | 0.00 | 0.00 | 0.00 | 56 | 1010.3 |
| 20260506012505 | 21 | 194 | 8.0 | 22.5 | 0.00 | 0.00 | 0.00 | 56 | 1010.2 |
| 20260506012004 | 21 | 191 | 9.7 | 25.7 | 0.00 | 0.00 | 0.00 | 56 | 1010.2 |
| 20260506011504 | 21 | 196 | 9.7 | 32.2 | 0.00 | 0.00 | 0.00 | 56 | 1010.2 |
| 20260506011005 | 21 | 201 | 9.7 | 32.2 | 0.00 | 0.00 | 0.00 | 56 | 1010.1 |
| 20260506010504 | 21 | 195 | 9.7 | 22.5 | 0.00 | 0.00 | 0.00 | 56 | 1010.1 |
| 20260506010005 | 22 | 195 | 9.7 | 19.3 | 0.00 | 0.00 | 0.00 | 56 | 1010.0 |
| 20260506005504 | 22 | 197 | 11.3 | 24.1 | 0.00 | 0.00 | 0.00 | 55 | 1010.1 |
| 20260506005004 | 22 | 195 | 11.3 | 29.0 | 0.00 | 0.00 | 0.00 | 55 | 1010.0 |
| 20260506004505 | 22 | 199 | 9.7 | 29.0 | 0.00 | 0.00 | 0.00 | 55 | 1009.9 |
| 20260506004004 | 22 | 199 | 12.9 | 27.4 | 0.00 | 0.00 | 0.00 | 55 | 1009.9 |
| 20260506003505 | 22 | 199 | 14.5 | 29.0 | 0.00 | 0.00 | 0.00 | 54 | 1009.8 |
| 20260506003004 | 22 | 203 | 14.5 | 30.6 | 0.00 | 0.00 | 0.00 | 54 | 1009.8 |
| 20260506002504 | 22 | 201 | 14.5 | 30.6 | 0.00 | 0.00 | 0.00 | 53 | 1009.7 |
| 20260506002005 | 22 | 195 | 12.9 | 30.6 | 0.00 | 0.00 | 0.00 | 52 | 1009.6 |
| 20260506001504 | 22 | 197 | 11.3 | 25.7 | 0.00 | 0.00 | 0.00 | 51 | 1009.6 |
| 20260506001004 | 23 | 200 | 11.3 | 25.7 | 0.00 | 0.00 | 0.00 | 50 | 1009.6 |
| 20260506000505 | 23 | 195 | 8.0 | 19.3 | 0.00 | 0.00 | 0.00 | 48 | 1009.5 |
| 20260506000004 | 23 | 199 | 9.7 | 25.7 | 0.00 | 0.00 | 0.00 | 46 | 1009.5 |
| 20260505235504 | 23 | 202 | 11.3 | 25.7 | 0.00 | 0.00 | 0.00 | 44 | 1009.4 |
| 20260505235004 | 24 | 202 | 11.3 | 22.5 | 0.00 | 0.00 | 0.00 | 44 | 1009.4 |
| 20260505234504 | 24 | 199 | 11.3 | 22.5 | 0.00 | 0.00 | 0.00 | 43 | 1009.4 |
| 20260505234005 | 24 | 197 | 11.3 | 25.7 | 0.00 | 0.00 | 0.00 | 42 | 1009.2 |
| 20260505233503 | 25 | 197 | 11.3 | 25.7 | 0.00 | 0.00 | 0.00 | 41 | 1009.2 |
| 20260505233005 | 25 | 203 | 11.3 | 27.4 | 0.00 | 0.00 | 0.00 | 40 | 1009.2 |
| 20260505232504 | 25 | 209 | 12.9 | 27.4 | 0.00 | 0.00 | 0.00 | 38 | 1009.0 |
| 20260505232005 | 25 | 203 | 11.3 | 27.4 | 0.00 | 0.00 | 0.00 | 38 | 1009.0 |
| 20260505230504 | 25 | 217 | 9.7 | 32.2 | 0.00 | 0.00 | 0.00 | 38 | 1008.9 |
| 20260505230005 | 26 | 213 | 14.5 | 38.6 | 0.00 | 0.00 | 0.00 | 38 | 1008.8 |
| 20260505225006 | 26 | 213 | 16.1 | 35.4 | 0.00 | 0.00 | 0.00 | 36 | 1008.7 |
| 20260505224504 | 26 | 209 | 14.5 | 37.0 | 0.00 | 0.00 | 0.00 | 37 | 1008.8 |
| 20260505223504 | 26 | 213 | 16.1 | 46.7 | 0.00 | 0.00 | 0.00 | 36 | 1008.8 |
| 20260505223004 | 26 | 215 | 14.5 | 46.7 | 0.00 | 0.00 | 0.00 | 36 | 1008.8 |
| 20260505222504 | 26 | 211 | 16.1 | 38.6 | 0.00 | 0.00 | 0.00 | 36 | 1008.7 |
| 20260505221007 | 27 | 209 | 16.1 | 40.2 | 0.00 | 0.00 | 0.00 | 35 | 1008.7 |
| 20260505220004 | 27 | 206 | 14.5 | 29.0 | 0.00 | 0.00 | 0.00 | 34 | 1008.6 |
| 20260505215004 | 27 | 213 | 16.1 | 40.2 | 0.00 | 0.00 | 0.00 | 33 | 1008.5 |
| 20260505214004 | 27 | 227 | 12.9 | 32.2 | 0.00 | 0.00 | 0.00 | 32 | 1008.5 |
| 20260505213504 | 27 | 238 | 12.9 | 35.4 | 0.00 | 0.00 | 0.00 | 31 | 1008.4 |
| 20260505213004 | 28 | 240 | 12.9 | 35.4 | 0.00 | 0.00 | 0.00 | 32 | 1008.4 |
| 20260505212504 | 28 | 240 | 17.7 | 40.2 | 0.00 | 0.00 | 0.00 | 30 | 1008.4 |
| 20260505211504 | 28 | 233 | 14.5 | 37.0 | 0.00 | 0.00 | 0.00 | 30 | 1008.1 |
| 20260505211004 | 28 | 239 | 17.7 | 38.6 | 0.00 | 0.00 | 0.00 | 28 | 1008.1 |
| 20260505210504 | 28 | 237 | 19.3 | 43.5 | 0.00 | 0.00 | 0.00 | 28 | 1008.2 |
| 20260505205505 | 28 | 242 | 19.3 | 45.1 | 0.00 | 0.00 | 0.00 | 27 | 1008.3 |
| 20260505205004 | 28 | 238 | 19.3 | 45.1 | 0.00 | 0.00 | 0.00 | 26 | 1008.1 |
| 20260505204504 | 28 | 228 | 16.1 | 35.4 | 0.00 | 0.00 | 0.00 | 27 | 1008.0 |
| 20260505204004 | 28 | 222 | 14.5 | 40.2 | 0.00 | 0.00 | 0.00 | 32 | 1008.1 |
| 20260505203504 | 28 | 214 | 17.7 | 40.2 | 0.00 | 0.00 | 0.00 | 32 | 1008.2 |
| 20260505203004 | 28 | 207 | 16.1 | 37.0 | 0.00 | 0.00 | 0.00 | 32 | 1008.2 |